Miscellaneous Local Product
Issued by NWS North Platte, NE

Home | Current Version | Previous Version | Text Only | Print | Product List | Glossary On
Versions: 1 2 3 4 5 6 7 8 9 10 11 12 13 14 15 16 17 18 19 20 21 22 23 24 25 26 27 28 29 30 31 32 33 34 35 36 37 38 39 40 41 42 43 44 45 46 47 48 49 50
000
AXUS43 KLBF 240710
MISLBF


WESTERN AND NORTH CENTRAL NEBRASKA HOURLY WEATHER ROUNDUP
NATIONAL WEATHER SERVICE NORTH PLATTE NE
100 AM CST MON NOV 24 2014

***STATIONS NOT REPORTING VARIABLES SUCH AS SKY/WEATHER OR
PRESSURE ARE PROVIDED BY THE NEBRASKA DEPARTMENT OF
ROADS...RAWS...AND APRS NETWORKS...AND ARE NOT UNDER
NATIONAL WEATHER SERVICE QUALITY CONTROL***

...OBSERVATIONS IN AND NEAR THE EASTERN PANHANDLE OF NEBRASKA...

CITY           SKY/WX    TMP DP  RH WIND       PRES   REMARKS
PINE RIDGE     CLOUDY    31  23  72 NW10      29.74S WCI  22
CHADRON        MOCLDY    32  20  61 W14       29.78S WCI  22
ALLIANCE       PTCLDY    26  18  71 W16       29.74F WCI  14
SIDNEY         CLEAR     26  15  63 NW13      29.80S WCI  15
WHITECLAY        N/A     30  19  64 NW8         N/A  WCI  23
LISCO            N/A     28  19  69 W12         N/A  WCI  18
BIG SPRINGS      N/A     29  21  72 W12         N/A  WCI  19
$$

...OBSERVATIONS IN NORTH CENTRAL NEBRASKA...

CITY           SKY/WX    TMP DP  RH WIND       PRES   REMARKS
VALENTINE      MOCLDY    28  20  71 NW15      29.67S WCI  16
THEDFORD       CLOUDY    36  24  61 N12       29.66S WCI  28
AINSWORTH      PTCLDY    28  20  70 NW20      29.65S WCI  15
O`NEILL        CLOUDY    30  22  73 NW28G36   29.62S WCI  16
ORD            PTCLDY    31  19  61 NW22G31   29.62F WCI  18
BROKEN BOW     CLOUDY    34  22  61 NW17G25   29.64F WCI  23
BROWNLEE         N/A     32  22  67 NW23        N/A  WCI  20
BREWSTER         N/A     36  22  57 NW25        N/A  WCI  24
COMSTOCK         N/A     37  21  52 NW23        N/A  WCI  26
$$

...OBSERVATIONS IN SOUTHWEST NEBRASKA AND FAR NORTHEAST COLORADO...

CITY           SKY/WX    TMP DP  RH WIND       PRES   REMARKS
WRAY           FAIR      29  18  62 W15G23    29.82S WCI  18
HOLYOKE        FAIR      30  19  64 W17       29.80S WCI  18
IMPERIAL       CLEAR     32  18  56 W15       29.77S WCI  22
OGALLALA       CLEAR     36  21  54 NW21G36   29.74F WCI  25
NORTH PLATTE   CLEAR     30  19  63 W14       29.70F WCI  19
MCCOOK         PTCLDY    31  16  54 W17G25    29.74F WCI  19
LEXINGTON      CLOUDY    35  23  60 NW17G23   29.68S WCI  25
PAXTON           N/A     34  24  66 W10         N/A  WCI  26
GOTHENBURG       N/A     34  19  54 W13         N/A  WCI  25
CALLAWAY         N/A     30  22  73 W12         N/A  WCI  20
$$

...SOME WEATHER OBSERVATIONS FROM AROUND THE REGION...

CITY           SKY/WX    TMP DP  RH WIND       PRES   REMARKS
DENVER         PTCLDY    27   9  46 SW10      29.87S WCI  17
LARAMIE        CLEAR     14   6  70 SW9       29.86S WCI   2
CHEYENNE       CLEAR     24   7  48 NW13G21   29.82S WCI  12
SCOTTSBLUFF    CLEAR     27  17  66 W14       29.80F WCI  16
RAPID CITY     PTCLDY    31  20  63 N15       29.72S WCI  20
PIERRE         CLOUDY    25  16  68 N18G35    29.68R WCI  11
WINNER         CLOUDY    27  18  69 NW28G35   29.66S WCI  11
SIOUX FALLS    CLOUDY    23  15  71 NW23G35   29.52S WCI   7
OMAHA          CLOUDY    33  23  66 NW17G29   29.53F WCI  22
KANSAS CITY    CLOUDY    39  30  70 NW21G31   29.49R WCI  29
WICHITA        PTCLDY    41  25  53 NW18      29.70S
HAYS           CLEAR     34  14  44 NW15      29.75S WCI  24
LIBERAL        PTCLDY    28  12  50 W9        29.90S WCI  20
GOODLAND       CLEAR     25  14  63 W15       29.82F WCI  13
$$



USA.gov is the U.S. government's official web portal to all federal, state and local government web resources and services.